Regional Weather Roundup
Issued by NWS Sioux Falls, SD

Home | Current Version | Previous Version | Graphics & Text | Print | Product List | Glossary On
Versions: 1 2 3 4 5 6 7 8 9 10 11 12 13 14 15 16 17 18 19 20 21 22 23 24 25 26 27 28 29 30 31 32 33 34 35 36 37 38 39 40 41 42 43 44 45 46 47 48 49 50
000
ASUS43 KFSD 120102
RWRFSD

WEATHER ROUNDUP FOR SE SOUTH DAKOTA/SW MINNESOTA/NW IOWA
NATIONAL WEATHER SERVICE SIOUX FALLS SD
800 PM CDT FRI JUL 11 2014

NOTE: "FAIR" INDICATES FEW OR NO CLOUDS BELOW 12,000 FEET WITH NO
SIGNIFICANT WEATHER AND OR OBSTRUCTIONS TO VISIBILITY.


SDZ038>040-050-052>070-120200-
SOUTHEAST SOUTH DAKOTA

CITY           SKY/WX    TMP DP  RH WIND       PRES   REMARKS
CHAMBERLAIN    CLOUDY    84  69  60 E3        29.97S
HURON          PTSUNNY   85  67  54 NE8       29.95R
MADISON        FAIR      81  73  78 S6        29.99S
MITCHELL       PTSUNNY   84  73  69 SE7       29.97R
SIOUX FALLS    PTSUNNY   79  72  79 S7        29.99R
WINNER         FAIR      81  69  67 SE7       29.99R
YANKTON        CLOUDY    75  73  94 E6        29.98R
$$

MNZ071-072-080-081-089-090-097-098-120200-
SOUTHWEST MINNESOTA

CITY           SKY/WX    TMP DP  RH WIND       PRES   REMARKS
FAIRMONT       CLOUDY    79  66  65 S10       29.99S
JACKSON        CLOUDY    79  68  69 SW7       30.01R
LUVERNE        PTCLDY    79  72  78 S5        30.00R
MARSHALL       CLEAR     84  72  65 SW6       29.96R
MONTEVIDEO     SUNNY     88  72  58 CALM      29.96R
PIPESTONE      SUNNY     79  72  78 SW10      30.01R
REDWOOD FALLS  CLEAR     83  73  72 S6        29.96R
TRACY          PTCLDY    83  72  69 SW3       29.99R
WINDOM         PTCLDY    81  72  74 SW5       30.00R
WORTHINGTON    PTCLDY    77  72  83 SW6       30.02R
$$

IAZ001>003-012>014-020>022-031-032-NEZ013-014-SDZ071-120200-
NORTHWEST IOWA

CITY           SKY/WX    TMP DP  RH WIND       PRES   REMARKS
CHEROKEE       DRIZZLE   72  72  98 S5        29.99S
DENISON        CLOUDY    73  72  94 CALM      30.00R
ESTHERVILLE    PTCLDY    78  69  73 SW5       30.00S
LE MARS        CLOUDY    73  72  94 SE3       29.99S
ORANGE CITY    CLOUDY    75  70  83 S5        29.99F
SHELDON        MOCLDY    75  72  88 CALM      29.99S
SIOUX CITY     CLOUDY    75  72  90 SE7       29.97F
SPENCER        PTCLDY    78  70  76 SW5       30.00R
STORM LAKE     CLOUDY    72  72 100 SE3       30.01F FOG
$$

ABBREVIATIONS USED IN REMARKS
   TC - TEMPERATURE IN CELSIUS
  WCI - WIND CHILL INDEX
   HX - HEAT INDEX
  VSB - VISIBILITY



USA.gov is the U.S. government's official web portal to all federal, state and local government web resources and services.